Meteo pe oră la Działdowo

Astăzi, 9 Mai, Duminică

Timp Temperatura Precipitaţii Vânt Presiune Umiditate
00:00 +3°C° 0 mm 2 m/s 750 mmHg 83%
01:00 +2°C° 0 mm 2 m/s 750 mmHg 84%
02:00 +1°C° 0 mm 3 m/s 750 mmHg 85%
03:00 +1°C° 0 mm 3 m/s 750 mmHg 87%
04:00 +1°C° 0 mm 3 m/s 750 mmHg 88%
05:00 +3°C° 0 mm 4 m/s 749 mmHg 83%
06:00 +5°C° 0 mm 4 m/s 749 mmHg 78%
07:00 +6°C° 0 mm 5 m/s 749 mmHg 73%
08:00 +8°C° 0 mm 5 m/s 749 mmHg 68%
09:00 +10°C° 0 mm 6 m/s 749 mmHg 64%
10:00 +11°C° 0 mm 7 m/s 749 mmHg 59%
11:00 +11°C° 0 mm 6 m/s 749 mmHg 62%
12:00 +11°C° 0 mm 6 m/s 748 mmHg 66%
13:00 +12°C° 0 mm 5 m/s 748 mmHg 69%
14:00 +14°C° 0 mm 5 m/s 748 mmHg 68%
15:00 +15°C° 0 mm 5 m/s 748 mmHg 67%
16:00 +16°C° 0 mm 5 m/s 747 mmHg 66%
17:00 +15°C° 0 mm 5 m/s 747 mmHg 72%
18:00 +13°C° 0 mm 4 m/s 747 mmHg 78%
19:00 +12°C° 0 mm 4 m/s 747 mmHg 84%
20:00 +12°C° 0 mm 4 m/s 747 mmHg 83%
21:00 +10°C° 0 mm 5 m/s 747 mmHg 82%
22:00 +10°C° 0 mm 5 m/s 747 mmHg 81%
23:00 +9°C° 0 mm 5 m/s 747 mmHg 84%

Mâine, 10 Mai, Luni

Timp Temperatura Precipitaţii Vânt Presiune Umiditate
00:00 +8°C° 0 mm 4 m/s 747 mmHg 87%
01:00 +8°C° 0 mm 4 m/s 747 mmHg 90%
02:00 +7°C° 0 mm 4 m/s 747 mmHg 91%
03:00 +7°C° 0 mm 4 m/s 747 mmHg 92%
04:00 +6°C° 0 mm 4 m/s 747 mmHg 93%
05:00 +8°C° 0 mm 4 m/s 747 mmHg 87%
06:00 +10°C° 0 mm 5 m/s 747 mmHg 81%
07:00 +11°C° 0 mm 6 m/s 748 mmHg 75%
08:00 +14°C° 0 mm 6 m/s 748 mmHg 71%
09:00 +16°C° 0 mm 6 m/s 747 mmHg 66%
10:00 +17°C° 0 mm 7 m/s 747 mmHg 62%
11:00 +18°C° 0 mm 7 m/s 747 mmHg 60%
12:00 +20°C° 0 mm 7 m/s 747 mmHg 59%
13:00 +21°C° 0 mm 8 m/s 747 mmHg 57%
14:00 +21°C° 0 mm 7 m/s 747 mmHg 59%
15:00 +21°C° 0 mm 7 m/s 747 mmHg 61%
16:00 +21°C° 0 mm 7 m/s 747 mmHg 64%
17:00 +19°C° 0 mm 6 m/s 747 mmHg 69%
18:00 +17°C° 0 mm 5 m/s 747 mmHg 74%
19:00 +15°C° 0 mm 5 m/s 747 mmHg 80%
20:00 +15°C° 0 mm 5 m/s 747 mmHg 82%
21:00 +14°C° 0 mm 5 m/s 747 mmHg 83%
22:00 +13°C° 0 mm 5 m/s 747 mmHg 85%
23:00 +13°C° 0 mm 5 m/s 747 mmHg 88%

Poimâine, 11 Mai, Marţi

Timp Temperatura Precipitaţii Vânt Presiune Umiditate
00:00 +12°C° 0 mm 5 m/s 747 mmHg 90%
01:00 +12°C° 0 mm 5 m/s 747 mmHg 93%
02:00 +10°C° 0 mm 5 m/s 747 mmHg 93%
03:00 +10°C° 0 mm 5 m/s 747 mmHg 94%
04:00 +9°C° 0 mm 5 m/s 747 mmHg 94%
05:00 +10°C° 0 mm 6 m/s 746 mmHg 89%
06:00 +13°C° 0 mm 6 m/s 746 mmHg 84%
07:00 +14°C° 0 mm 7 m/s 746 mmHg 79%
08:00 +15°C° 0 mm 8 m/s 746 mmHg 74%
09:00 +17°C° 0 mm 8 m/s 746 mmHg 70%
10:00 +18°C° 0 mm 9 m/s 746 mmHg 65%
11:00 +19°C° 0 mm 9 m/s 746 mmHg 64%
12:00 +21°C° 0 mm 9 m/s 746 mmHg 64%
13:00 +22°C° 0 mm 9 m/s 746 mmHg 63%
14:00 +21°C° 0 mm 9 m/s 745 mmHg 64%
15:00 +21°C° 0 mm 8 m/s 745 mmHg 65%
16:00 +21°C° 0 mm 8 m/s 745 mmHg 67%
17:00 +18°C° 0 mm 8 m/s 745 mmHg 69%
18:00 +17°C° 0 mm 8 m/s 745 mmHg 71%
19:00 +16°C° 0 mm 7 m/s 745 mmHg 73%
20:00 +15°C° 0 mm 7 m/s 745 mmHg 70%
21:00 +14°C° 0 mm 7 m/s 745 mmHg 68%
22:00 +12°C° 0 mm 7 m/s 745 mmHg 65%
23:00 +12°C° 0 mm 7 m/s 745 mmHg 68%

12 Mai, Miercuri

Timp Temperatura Precipitaţii Vânt Presiune Umiditate
00:00 +11°C° 0 mm 7 m/s 745 mmHg 70%
01:00 +11°C° 0 mm 7 m/s 745 mmHg 72%
02:00 +11°C° 0 mm 7 m/s 744 mmHg 76%
03:00 +10°C° 0 mm 7 m/s 744 mmHg 80%
04:00 +10°C° 0 mm 7 m/s 744 mmHg 84%
05:00 +11°C° 0 mm 7 m/s 744 mmHg 83%
06:00 +12°C° 0 mm 7 m/s 744 mmHg 81%
07:00 +15°C° 0 mm 8 m/s 744 mmHg 80%
08:00 +16°C° 0 mm 8 m/s 744 mmHg 76%
09:00 +17°C° 0 mm 9 m/s 744 mmHg 72%
10:00 +18°C° 0 mm 9 m/s 744 mmHg 67%
11:00 +18°C° 0 mm 9 m/s 744 mmHg 63%
12:00 +19°C° 0 mm 9 m/s 744 mmHg 59%
13:00 +19°C° 0 mm 9 m/s 743 mmHg 55%
14:00 +18°C° 0 mm 8 m/s 743 mmHg 58%
15:00 +18°C° 0 mm 8 m/s 743 mmHg 61%
16:00 +18°C° 0 mm 7 m/s 743 mmHg 63%
17:00 +16°C° 0 mm 6 m/s 743 mmHg 66%
18:00 +15°C° 0 mm 6 m/s 743 mmHg 69%
19:00 +13°C° 0 mm 5 m/s 742 mmHg 72%
20:00 +12°C° 0 mm 5 m/s 742 mmHg 74%
21:00 +10°C° 0 mm 5 m/s 742 mmHg 76%
22:00 +9°C° 0 mm 5 m/s 742 mmHg 78%
23:00 +10°C° 0 mm 4 m/s 742 mmHg 81%

13 Mai, Joi

Timp Temperatura Precipitaţii Vânt Presiune Umiditate
00:00 +8°C° 0 mm 4 m/s 742 mmHg 85%
01:00 +7°C° 0 mm 4 m/s 742 mmHg 88%
02:00 +7°C° 0 mm 3 m/s 742 mmHg 89%
03:00 +7°C° 0 mm 3 m/s 742 mmHg 90%
04:00 +5°C° 0 mm 3 m/s 741 mmHg 91%
05:00 +7°C° 0 mm 4 m/s 741 mmHg 86%
06:00 +8°C° 0 mm 4 m/s 741 mmHg 80%
07:00 +10°C° 0 mm 5 m/s 741 mmHg 75%
08:00 +12°C° 0 mm 5 m/s 741 mmHg 71%
09:00 +13°C° 0 mm 5 m/s 741 mmHg 66%
10:00 +15°C° 0 mm 5 m/s 740 mmHg 62%
11:00 +15°C° 0.1 mm 5 m/s 740 mmHg 62%
12:00 +15°C° 0.1 mm 5 m/s 740 mmHg 63%
13:00 +15°C° 0.1 mm 4 m/s 740 mmHg 64%
14:00 +14°C° 0.1 mm 4 m/s 740 mmHg 65%
15:00 +14°C° 0.1 mm 4 m/s 740 mmHg 65%
16:00 +14°C° 0.1 mm 4 m/s 740 mmHg 66%
17:00 +13°C° 0.1 mm 3 m/s 740 mmHg 69%
18:00 +13°C° 0.1 mm 3 m/s 740 mmHg 73%
19:00 +13°C° 0.1 mm 2 m/s 740 mmHg 77%
20:00 +12°C° 0 mm 2 m/s 740 mmHg 77%
21:00 +10°C° 0 mm 2 m/s 740 mmHg 78%
22:00 +10°C° 0 mm 2 m/s 740 mmHg 79%
23:00 +10°C° 0 mm 1 m/s 740 mmHg 81%

14 Mai, Vineri

Timp Temperatura Precipitaţii Vânt Presiune Umiditate
00:00 +10°C° 0 mm 1 m/s 740 mmHg 84%
01:00 +10°C° 0 mm 1 m/s 740 mmHg 86%
02:00 +10°C° 0 mm 1 m/s 740 mmHg 87%
03:00 +10°C° 0 mm 1 m/s 740 mmHg 88%
04:00 +9°C° 0 mm 1 m/s 740 mmHg 90%
05:00 +11°C° 0 mm 1 m/s 740 mmHg 86%
06:00 +11°C° 0 mm 0 m/s 740 mmHg 82%
07:00 +12°C° 0 mm 0 m/s 740 mmHg 78%
08:00 +14°C° 0.2 mm 1 m/s 741 mmHg 71%
09:00 +16°C° 0.2 mm 1 m/s 741 mmHg 64%
10:00 +18°C° 0.2 mm 1 m/s 741 mmHg 58%
11:00 +17°C° 0.4 mm 2 m/s 741 mmHg 59%
12:00 +17°C° 0.4 mm 3 m/s 741 mmHg 60%
13:00 +17°C° 0.4 mm 3 m/s 741 mmHg 62%
14:00 +17°C° 0.5 mm 3 m/s 741 mmHg 64%
15:00 +17°C° 0.5 mm 3 m/s 741 mmHg 67%
16:00 +17°C° 0.5 mm 3 m/s 742 mmHg 69%
17:00 +16°C° 0.5 mm 3 m/s 742 mmHg 75%
18:00 +13°C° 0.5 mm 3 m/s 742 mmHg 81%
19:00 +13°C° 0.5 mm 2 m/s 742 mmHg 86%
20:00 +12°C° 0.3 mm 3 m/s 742 mmHg 90%
21:00 +11°C° 0.3 mm 3 m/s 743 mmHg 93%
22:00 +11°C° 0.3 mm 3 m/s 743 mmHg 96%
23:00 +10°C° 0.2 mm 3 m/s 743 mmHg 96%
Arată mai mult

Formular de consimțământ

Meteoprog și furnizorii noștri de servicii pot stoca și accesa date personale, precum cookies, identificatori de dispozitiv sau alte tehnologii similare pe dispozitivul dumneavoastră și procesa astfel de date pentru a personaliza conținutul și reclamele, dar și pentru a oferi caracteristici de social media și pentru a analiza traficul.

  • Stocarea și/sau accesarea informațiilor pe dispozitivul dumneavoastră

    Cookies, identificatori de dispozitiv sau alte informații pot fi stocate sau accesate pe dispozitiv în scopurile indicate mai sus.

  • Reclame și conținut personalizat, evaluarea reclamelor și a conținutului, informații despre audiențe și dezvoltarea produselor

    Reclamele și conținutul pot fi personalizate pe baza unui profil. Pot fi adăugate date suplimentare pentru a personaliza mai bine reclamele și conținutul. Performanța reclamelor și conținutului poate fi măsurată. Pot fi obținute informații despre utilizatorii care au văzut reclamele și conținutul. Aceste date pot fi utilizate pentru a dezvolta sau îmbunătăți experiența utilizatorilor, sistemele și software-ul.

Dând clic pe ‘Sunt de acord’, permiteți utilizarea cookie-urilor menționate, a identificatorilor de dispozitiv, balizelor web sau altor tehnologii similare. Setările pot fi modificate din browser-ul dispozitivului dumneavoastră.

În anumite scopuri, interesele legitime pot prima asupra consimțământului. Puteți citi mai multe informații în acest sens în Politica privind Confidențialitatea Datelor și Cookie.